TimeEDT,TemperatureF,Dew PointF,Humidity,Sea Level PressureIn,VisibilityMPH,Wind Direction,Wind SpeedMPH,Gust SpeedMPH,PrecipitationIn,Events,Conditions,WindDirDegrees,DateUTC
12:52 AM,55.9,54.0,93,30.16,10.0,Calm,Calm,-,N/A,,Clear,0,2013-08-07 04:52:00
1:52 AM,55.0,54.0,96,30.16,10.0,Calm,Calm,-,N/A,,Clear,0,2013-08-07 05:52:00
2:52 AM,54.0,53.1,97,30.17,10.0,Calm,Calm,-,N/A,,Clear,0,2013-08-07 06:52:00
3:52 AM,55.0,53.1,93,30.18,10.0,Calm,Calm,-,N/A,,Mostly Cloudy,0,2013-08-07 07:52:00
4:52 AM,55.9,53.1,90,30.18,10.0,Calm,Calm,-,N/A,,Overcast,0,2013-08-07 08:52:00
5:52 AM,55.9,54.0,93,30.18,10.0,Calm,Calm,-,N/A,,Overcast,0,2013-08-07 09:52:00
6:52 AM,57.0,55.0,93,30.18,10.0,Calm,Calm,-,N/A,,Mostly Cloudy,0,2013-08-07 10:52:00
7:52 AM,60.1,55.9,86,30.19,10.0,Calm,Calm,-,N/A,,Overcast,0,2013-08-07 11:52:00
8:52 AM,64.0,57.9,80,30.19,10.0,SSE,4.6,-,N/A,,Mostly Cloudy,160,2013-08-07 12:52:00
9:52 AM,69.1,57.9,68,30.18,10.0,SE,6.9,-,N/A,,Clear,140,2013-08-07 13:52:00
10:03 AM,69.8,57.2,64,30.18,2.0,South,9.2,-,N/A,,Haze,180,2013-08-07 14:03:00
10:13 AM,71.6,57.2,60,30.18,10.0,SSE,6.9,-,N/A,,Partly Cloudy,160,2013-08-07 14:13:00
10:52 AM,71.1,55.9,59,30.18,10.0,SSE,8.1,-,N/A,,Scattered Clouds,160,2013-08-07 14:52:00
11:52 AM,73.9,51.1,45,30.16,10.0,SSW,8.1,-,N/A,,Clear,200,2013-08-07 15:52:00
12:52 PM,75.9,54.0,46,30.15,10.0,SSW,8.1,-,N/A,,Clear,200,2013-08-07 16:52:00
1:52 PM,78.1,48.0,35,30.15,10.0,SSW,13.8,-,N/A,,Clear,200,2013-08-07 17:52:00
2:52 PM,78.1,48.9,36,30.14,10.0,SSW,12.7,-,N/A,,Clear,200,2013-08-07 18:52:00
3:52 PM,77.0,52.0,42,30.14,10.0,South,9.2,17.3,N/A,,Mostly Cloudy,180,2013-08-07 19:52:00
4:52 PM,75.9,54.0,46,30.13,10.0,South,13.8,-,N/A,,Mostly Cloudy,190,2013-08-07 20:52:00
5:52 PM,75.0,55.0,50,30.11,10.0,South,11.5,-,N/A,,Clear,190,2013-08-07 21:52:00
6:52 PM,73.9,57.0,55,30.11,10.0,South,6.9,-,N/A,,Mostly Cloudy,190,2013-08-07 22:52:00
7:52 PM,72.0,57.9,61,30.11,10.0,South,5.8,-,N/A,,Overcast,190,2013-08-07 23:52:00
8:52 PM,70.0,57.9,65,30.11,10.0,South,4.6,-,N/A,,Mostly Cloudy,170,2013-08-08 00:52:00
9:52 PM,69.1,59.0,70,30.11,10.0,South,9.2,-,N/A,,Mostly Cloudy,170,2013-08-08 01:52:00
10:26 PM,69.8,60.8,73,30.11,10.0,SSE,5.8,-,N/A,,Overcast,160,2013-08-08 02:26:00
10:52 PM,68.0,60.1,76,30.11,10.0,SSE,6.9,-,N/A,,Overcast,160,2013-08-08 02:52:00
11:06 PM,68.0,60.8,78,30.11,10.0,SSE,5.8,-,N/A,,Mostly Cloudy,160,2013-08-08 03:06:00
11:50 PM,68.0,60.8,78,30.11,10.0,SE,4.6,-,N/A,,Overcast,140,2013-08-08 03:50:00
11:52 PM,68.0,60.1,76,30.11,10.0,SSE,3.5,-,N/A,,Overcast,150,2013-08-08 03:52:00